Regional Weather Roundup
Issued by NWS

Home | Current Version | Previous Version | Text Only | Print | Product List | Glossary Off
Versions: 1 2 3 4 5 6 7 8 9 10 11 12 13 14 15 16 17 18 19 20 21 22 23 24 25 26 27 28 29 30 31 32 33 34 35 36 37 38 39 40 41 42 43 44 45 46 47 48 49 50

000
ASUS43 KDMX 221701
RWRIA

WEATHER ROUNDUP FOR IOWA
NATIONAL WEATHER SERVICE DES MOINES IA
1100 AM CST MON JAN 22 2018

NOTE: "FAIR" INDICATES FEW OR NO CLOUDS BELOW 12,000 FEET WITH NO
SIGNIFICANT WEATHER AND/OR OBSTRUCTIONS TO VISIBILITY.

* - THESE STATIONS ARE NOT NWS STATIONS...THUS NOT UNDER NWS
QUALITY CONTROL.  THEY ALSO DO NOT REPORT WEATHER SUCH
AS PRECIPITATION OR FOG.

IAZ001>003-012>014-020>022-031>034-043>046-221800-
   NORTHWEST IOWA

CITY           SKY/WX    TMP DP  RH WIND       PRES   REMARKS
CARROLL *      MIX PCPN  34  34 100 N20G31    29.41F VSB 3/4 WCI  22
CHEROKEE *     SNOW      32  32 100 NE28G38   29.56F VSB 1/4 WCI  18
DENISON *      LGT RAIN  34  34 100 NE20      29.44S WCI  22
LE MARS *      HVY SNOW  28  28 100 N30G39    29.61R VSB<1/4 WCI  13
ORANGE CITY *  LGT SNOW  30  30 100 N17G31    29.63R VSB 1   WCI  18
SHELDON *      HVY SNOW  28  28 100 N29G36    29.61R VSB<1/4 WCI  13
SIOUX CITY     SNOW      28  28 100 N28       29.58S VSB 1/4 WCI  13
SPENCER        FOG       31  30  96 NE30G41   29.60R VSB 1/4 WCI  16
STORM LAKE *   SNOW      32  32 100 MISG      29.45F VSB<1/4
$$

IAZ055>058-069>071-079>083-090>094-221800-
   SOUTHWEST IOWA

CITY           SKY/WX    TMP DP  RH WIND       PRES   REMARKS
ATLANTIC *     CLOUDY    37  37 100 NE14G22   29.38S WCI  29
AUDUBON *      CLOUDY    36  34  93 N16G25    29.40R FOG     WCI  26
CLARINDA *     CLOUDY    37  37 100 CALM        N/A
COUNCIL BLFS * MIX PCPN  34  34 100 N13       29.41S WCI  25
CRESTON *      CLOUDY    39  37  93 S8        29.39S FOG     WCI  34
HARLAN  *      CLOUDY    36  36 100 NE17G29   29.43R WCI  25
LAMONI         CLOUDY    39  35  86 S15G22    29.41R WCI  31
RED OAK *        N/A     37  37 100 NW6       29.39S WCI  33
SHENANDOAH *   CLOUDY    36  36 100 NW9G16    29.40F WCI  29
$$

IAZ047>049-059>061-072>074-084-221800-
   CENTRAL IOWA

CITY           SKY/WX    TMP DP  RH WIND       PRES   REMARKS
AMES           CLOUDY    38  38 100 NE13      29.40F WCI  30
ANKENY *       CLOUDY    46  46 100 S9        29.40S
BOONE *        CLOUDY    37  37 100 NE15G22   29.38F WCI  28
CHARITON *     MOSUNNY   43  39  87 S20G26    29.41R
DES MOINES     PTSUNNY   47  44  90 S16       29.39R
GRINNELL*      CLOUDY    47  46  97 S15       29.42R
KNOXVILLE *    CLOUDY    46  37  71 SW16G25   29.40R
MARSHALLTOWN   CLOUDY    39  38  96 E12       29.40S WCI  32
NEWTON *       PTSUNNY   48  45  87 S16       29.40S
PELLA *        PTSUNNY   46  45  96 S13G21    29.43R
PERRY *        CLOUDY    38  38  99 NE12      29.39R FOG     WCI  31
$$

IAZ004>006-015-016-023>025-035-036-221800-
   NORTH CENTRAL IOWA

CITY           SKY/WX    TMP DP  RH WIND       PRES   REMARKS
ALGONA *       HVY SNOW  34 N/A N/A N16G43    29.52F VSB<1/4 WCI  23
CLARION *      CLOUDY    34  34 100 NE24G33   29.46S WCI  21
ESTHERVILLE    FOG       29  29 100 N30G40    29.59R VSB 1/2 WCI  13
FORT DODGE *   CLOUDY    33  32  96 N18G25    29.45S WCI  22
MASON CITY     LGT SNOW  33  31  92 NE18      29.53R VSB 3/4 WCI  22
FOREST CITY *  SNOW      34  34 100 NE13G21   29.52R VSB 1/4 WCI  25
WEBSTER CITY * CLOUDY    37  36  93 NE25      29.40F WCI  26
IOWA FALLS *   CLOUDY    36  35  96 NE15G23   29.45F WCI  27
$$

IAZ007>011-017>019-026>030-037>042-050>054-066-221800-
   NORTHEAST IOWA

CITY           SKY/WX    TMP DP  RH WIND       PRES   REMARKS
CEDAR RAPIDS   CLOUDY    45  45 100 E12       29.42F
CHARLES CITY * LGT SNOW  34  34 100 E18G35    29.51R WCI  23
CLINTON *      LGT RAIN  43  43 100 E10       29.46F FOG
DECORAH *      LGT RAIN  36  34  93 E17G28    29.47F WCI  25
DUBUQUE        LGT RAIN  38  38 100 E13       29.44F FOG     WCI  30
MONTICELLO *   LGT RAIN  39  39 100 E5        29.46S
OELWEIN *      CLOUDY    36  36 100 E15       29.47R WCI  26
WATERLOO       CLOUDY    36  35  96 NE14      29.44F WCI  27
$$

IAZ064-065-067-068-078-221800-
   EAST CENTRAL IOWA

CITY           SKY/WX    TMP DP  RH WIND       PRES   REMARKS
DAVENPORT        N/A     51  49  92 SE8       29.46F FOG
IOWA CITY      CLOUDY    52  48  86 SE6       29.44F
MT. PLEASANT * MOSUNNY   52  41  66 SW22      29.45S
MUSCATINE *    CLOUDY    55  48  76 S17       29.44F
QUAD CITIES      N/A     53  50  89 S14       29.44F
$$

IAZ062-063-075>077-085>089-095>099-221800-
   SOUTHEAST IOWA

CITY           SKY/WX    TMP DP  RH WIND       PRES   REMARKS
BURLINGTON     MOSUNNY   56  46  69 S20G25    29.45F
FAIRFIELD *    SUNNY     48  36  61 SW21G31   29.44R
FORT MADISON * MOSUNNY   54  41  62 SW20G29   29.46F
KEOKUK *       MOSUNNY   54  39  58 SW24G36   29.45F
OSKALOOSA *    PTSUNNY   45  39  78 SW22      29.44R
OTTUMWA        MOSUNNY   47  37  68 SW17      29.43R
WASHINGTON *   MOSUNNY   52  43  71 SW22G33   29.44R
$$

ABBREVIATIONS USED IN REMARKS
   TC - TEMPERATURES IN CELSIUS
  WCI - WIND CHILL INDEX
   HX - HEAT INDEX
  VSB - VISIBILITY
$$





USA.gov is the U.S. government's official web portal to all federal, state and local government web resources and services.